Torna al catalogo

KUIPER-00076

AttivoComunicazioniLEO
NORAD 64823·PAYLOAD·🇺🇸 United States

Lanciato Jul 16, 2025 da Cape Canaveral Space Force Station

Loading…

Prossimi Passaggi (prossime 24 ore)

TLE

AggiornatoSource: CelesTrak SupGP

Epoca: Sep 14, 2026, 15:28 UTC

1 64823C 25151H   26257.64493056  .00001666  00000+0  21812-3 0  2578
2 64823  51.8998 177.5417 0000914  85.0065 252.8301 14.79914019    12

Traccia KUIPER-00076 in tempo reale con AllMySat

Download on the App Store